EA3KZ-1 Weather Reports


time (UTC)temp
F
wind
direction
speed
knots
gust
knots
rain 1hr
in
rain 24hr
in
rain mn
in
humidity
%
barometer
mb
20260504003101 57 281 0.9 3.5 0.00 0.00 0.00 92 1009.6
20260504002058 57 300 1.7 3.5 0.00 0.00 0.00 92 1009.8
20260504001056 57 280 2.6 3.5 0.00 0.00 0.00 92 1009.8
20260504000053 57 299 1.7 3.5 0.00 0.00 0.00 91 1009.8
20260503235050 57 309 2.6 5.2 0.00 0.00 0.00 91 1009.8
20260503234048 57 312 1.7 3.5 0.00 0.00 0.00 92 1010.0
20260503233045 57 312 0.9 3.5 0.00 0.00 0.00 92 1009.9
20260503232043 56 12 1.7 3.5 0.00 0.00 0.00 92 1010.3
20260503231040 56 11 1.7 3.5 0.00 0.00 0.00 92 1010.1
20260503230038 56 323 0.9 1.7 0.00 0.00 0.00 92 1010.2
20260503225036 56 351 1.7 3.5 0.00 0.00 0.00 92 1010.0
20260503224033 56 339 1.7 3.5 0.00 0.00 0.00 93 1010.1
20260503223031 56 11 1.7 3.5 0.00 0.00 0.00 93 1010.1
20260503222028 56 342 1.7 3.5 0.00 0.00 0.00 94 1010.1
20260503221026 56 307 3.5 6.1 0.00 0.00 0.00 94 1010.1
20260503220023 56 305 4.3 7.0 0.00 0.00 0.00 94 1010.1
20260503215020 56 320 3.5 7.0 0.00 0.00 0.00 93 1010.3
20260503214018 56 352 3.5 7.8 0.00 0.00 0.00 92 1010.2
20260503213015 57 329 2.6 6.1 0.00 0.00 0.00 91 1010.4
20260503212113 57 331 4.3 9.6 0.00 0.00 0.00 90 1010.3
20260503211110 58 26 2.6 7.0 0.00 0.00 0.00 89 1010.6
20260503210108 58 324 1.7 3.5 0.00 0.00 0.00 88 1010.5
20260503205104 58 2 2.6 5.2 0.00 0.00 0.00 87 1010.4
20260503204102 58 330 2.6 3.5 0.00 0.00 0.00 87 1010.5
20260503203059 58 328 2.6 7.0 0.00 0.00 0.00 88 1010.6
20260503202057 58 313 2.6 5.2 0.00 0.00 0.00 89 1010.6
20260503201054 58 351 0.9 3.5 0.00 0.00 0.00 89 1010.6
20260503200052 58 335 0.9 3.5 0.00 0.00 0.00 89 1010.4
20260503195049 58 300 2.6 3.5 0.00 0.00 0.00 89 1010.4
20260503194047 58 346 2.6 3.5 0.00 0.00 0.00 89 1010.3
20260503193044 58 345 2.6 5.2 0.00 0.00 0.00 89 1010.3
20260503192041 58 14 3.5 7.8 0.00 0.00 0.00 88 1010.2
20260503191041 58 332 3.5 6.1 0.00 0.00 0.00 88 1010.1
20260503190036 58 0 4.3 7.8 0.00 0.00 0.00 87 1010.0
20260503185034 58 18 4.3 7.8 0.00 0.00 0.00 86 1010.1
20260503184031 58 23 2.6 5.2 0.00 0.00 0.00 85 1010.2
20260503183028 58 338 3.5 6.1 0.00 0.00 0.00 83 1010.1
20260503182026 58 333 3.5 7.0 0.00 0.00 0.00 81 1010.1
20260503181023 59 338 1.7 6.1 0.00 0.00 0.00 80 1010.1
20260503180021 59 341 2.6 5.2 0.00 0.00 0.00 80 1010.0
20260503175018 59 25 2.6 5.2 0.00 0.00 0.00 80 1010.1
20260503174015 59 351 3.5 7.0 0.00 0.00 0.00 78 1009.8
20260503173112 59 359 5.2 9.6 0.00 0.00 0.00 75 1009.8
20260503172110 59 355 3.5 7.8 0.00 0.00 0.00 74 1009.8
20260503171107 59 15 4.3 9.6 0.00 0.00 0.00 74 1009.8
20260503170105 59 23 6.1 11.3 0.00 0.00 0.00 76 1009.8
20260503131105 63 278 1.7 6.1 0.00 0.00 0.00 72 1011.5
20260503081046 60 3 3.5 7.0 0.00 0.00 0.00 81 1012.2
20260503072033 59 350 3.5 7.0 0.00 0.00 0.00 87 1012.3
20260503071030 58 23 3.5 6.1 0.00 0.00 0.00 89 1012.1
20260503055110 58 2 3.5 6.1 0.00 0.00 0.00 88 1012.3
20260503054107 58 2 1.7 5.2 0.00 0.00 0.00 87 1012.3
20260503053104 58 9 1.7 3.5 0.00 0.00 0.00 87 1012.2
20260503052102 58 322 1.7 3.5 0.00 0.00 0.00 86 1012.1
20260503051059 58 11 1.7 3.5 0.00 0.00 0.00 87 1012.1
20260503050056 58 340 1.7 5.2 0.00 0.00 0.00 87 1012.1
20260503045054 58 326 2.6 3.5 0.00 0.00 0.00 87 1012.1
20260503044051 58 16 0.9 3.5 0.00 0.00 0.00 87 1012.1
20260503043049 58 21 2.6 5.2 0.00 0.00 0.00 87 1012.0
20260503042046 58 6 2.6 5.2 0.00 0.00 0.00 87 1012.2
20260503041044 58 314 2.6 3.5 0.00 0.00 0.00 89 1012.2
20260503040041 58 307 2.6 3.5 0.00 0.00 0.00 90 1012.5
20260503035038 58 279 1.7 3.5 0.00 0.00 0.00 91 1012.5
20260503034036 58 308 1.7 3.5 0.00 0.00 0.00 91 1012.5
20260503033033 58 315 2.6 3.5 0.00 0.00 0.00 91 1012.6
20260503032031 58 343 0.9 3.5 0.00 0.00 0.00 90 1012.6
20260503031028 58 320 2.6 5.2 0.00 0.00 0.00 90 1012.8
20260503030025 58 316 1.7 3.5 0.00 0.00 0.00 89 1012.9
20260503025023 58 336 1.7 3.5 0.00 0.00 0.00 89 1013.0
20260503024020 58 322 1.7 3.5 0.00 0.00 0.00 89 1013.1
20260503023017 58 325 0.9 3.5 0.00 0.00 0.00 90 1013.0
20260503022115 58 27 1.7 3.5 0.00 0.00 0.00 90 1013.0
20260503021112 58 32 1.7 3.5 0.00 0.00 0.00 89 1013.0
20260503020109 58 28 0.9 3.5 0.00 0.00 0.00 89 1013.1
20260503015106 58 1 0.9 3.5 0.00 0.00 0.00 89 1013.2
20260503014104 58 324 0.9 3.5 0.00 0.00 0.00 88 1013.1
20260503013101 58 8 1.7 5.2 0.00 0.00 0.00 88 1013.2
20260503012058 58 314 2.6 5.2 0.00 0.00 0.00 89 1013.2
20260503011056 58 10 2.6 5.2 0.00 0.00 0.00 89 1013.3
20260503010053 58 344 1.7 5.2 0.00 0.00 0.00 89 1013.7
20260503005051 58 328 1.7 3.5 0.00 0.00 0.00 89 1013.9
20260503004048 58 359 2.6 3.5 0.00 0.00 0.00 89 1013.9